Location: Newark
(40.9833°N, 0.0333°W)
Time: 09:38:20
(UTC+00:00)

Transit 4A - Pass Details

Date: 01 November 2020
Orbit: 862 x 982 km, 66.8° (Epoch: 26 November)

Event Time Altitude Azimuth Distance (km) Brightness Sun altitude
Rises 15:52:24 0° 256° (WSW) 3,615 12.7 10.0°
Reaches altitude 10° 15:55:40 10° 273° (W) 2,692 11.5 9.5°
Maximum altitude 16:00:11 20° 319° (NW) 2,073 10.0 8.7°
Drops below altitude 10° 16:04:48 10° 6° (N) 2,737 10.1 8.0°
Sets 16:08:10 0° 22° (NNE) 3,693 10.6 7.4°
